Temp
-10 -11 -11 -10 -10 -10 -10 -10 -10 -10 -11 -11 -11 -12 -14 -14 -14 -14 -14 -14 -14 -15 -15 -15 -15 -14 -15 -15 -13 -14 -13 -12 -11 -12 -11 -11 -12 -12 -12 -11 -11 -11 -11 -11 -11 -10 -10 -10 -10
-11 -11 -11 -11 -11 -10 -10 -11 -11 -11 -11 -12 -12 -13 -14 -15 -14 -14 -14 -14 -14 -14 -15 -15 -15 -15 -14 -14 -14 -14 -14 -12 -12 -12 -12 -12 -12 -12 -12 -11 -11 -11 -11 -11 -11 -11 -11 -10 -10
-11 -12 -12 -11 -10 -10 -11 -11 -11 -11 -12 -12 -13 -14 -14 -13 -14 -14 -14 -13 -14 -14 -14 -15 -15 -15 -14 -14 -14 -14 -13 -13 -12 -12 -12 -11 -12 -11 -11 -11 -11 -11 -11 -11 -11 -11 -11 -11 -10
-11 -11 -12 -11 -11 -11 -11 -11 -12 -12 -13 -13 -13 -14 -13 -13 -13 -13 -13 -14 -14 -14 -13 -14 -14 -14 -14 -14 -14 -13 -13 -13 -12 -12 -12 -12 -11 -12 -11 -11 -12 -11 -11 -11 -11 -12 -11 -11 -11
-11 -12 -12 -12 -11 -11 -11 -11 -12 -12 -13 -13 -14 -13 -13 -13 -13 -13 -14 -14 -13 -12 -13 -13 -15 -14 -14 -14 -14 -13 -13 -13 -12 -13 -13 -13 -12 -12 -11 -12 -12 -11 -11 -11 -12 -12 -12 -12 -11
-11 -11 -12 -12 -12 -12 -12 -11 -12 -12 -13 -13 -13 -13 -13 -13 -13 -13 -13 -14 -13 -12 -12 -11 -11 -14 -15 -14 -14 -13 -13 -13 -13 -13 -12 -12 -13 -11 -12 -12 -12 -12 -12 -12 -12 -12 -12 -12 -12
-11 -12 -12 -12 -12 -12 -12 -12 -12 -13 -13 -13 -13 -12 -13 -13 -13 -13 -13 -14 -14 -12 -12 -13 -11 -12 -13 -13 -14 -13 -13 -13 -12 -13 -12 -12 -13 -11 -12 -12 -12 -11 -12 -12 -12 -12 -12 -12 -12
-11 -12 -12 -12 -12 -12 -12 -12 -12 -13 -13 -13 -13 -12 -12 -13 -13 -13 -12 -13 -13 -14 -13 -13 -13 -13 -13 -12 -13 -13 -13 -12 -12 -12 -12 -12 -12 -12 -12 -12 -12 -11 -12 -13 -13 -12 -12 -12 -12
-11 -12 -12 -12 -12 -12 -12 -12 -12 -13 -13 -13 -13 -12 -12 -12 -13 -13 -13 -12 -13 -13 -14 -13 -13 -13 -13 -13 -13 -13 -12 -12 -12 -12 -12 -12 -12 -12 -12 -12 -12 -12 -13 -13 -13 -12 -12 -12 -12
-11 -12 -12 -12 -12 -11 -12 -12 -13 -14 -14 -14 -13 -13 -13 -13 -13 -13 -13 -13 -12 -13 -13 -13 -14 -14 -13 -12 -13 -13 -12 -12 -12 -12 -12 -12 -12 -13 -12 -12 -12 -13 -13 -13 -13 -13 -12 -12 -12
-11 -12 -11 -12 -12 -12 -12 -12 -13 -14 -14 -14 -13 -13 -13 -13 -13 -13 -13 -13 -12 -12 -12 -13 -13 -13 -13 -13 -12 -12 -12 -12 -12 -12 -12 -12 -12 -12 -12 -12 -12 -13 -13 -13 -12 -12 -12 -12 -12
-11 -12 -12 -12 -12 -12 -12 -12 -12 -14 -14 -14 -14 -14 -14 -13 -13 -12 -12 -11 -11 -12 -12 -12 -12 -13 -12 -12 -13 -12 -12 -12 -11 -11 -12 -11 -12 -12 -12 -12 -13 -13 -13 -13 -13 -12 -12 -12 -13
-11 -11 -12 -12 -12 -12 -12 -12 -13 -14 -14 -14 -14 -14 -14 -13 -13 -12 -11 -11 -11 -11 -12 -12 -13 -13 -12 -13 -12 -12 -12 -12 -12 -12 -11 -12 -12 -12 -12 -11 -13 -13 -13 -13 -13 -13 -12 -13 -13
-11 -11 -12 -12 -12 -12 -12 -13 -13 -13 -14 -13 -14 -15 -14 -14 -13 -12 -11 -11 -11 -11 -12 -12 -13 -13 -12 -11 -12 -11 -12 -11 -11 -12 -12 -12 -12 -12 -11 -11 -13 -12 -13 -13 -13 -13 -13 -13 -13
-12 -12 -12 -13 -11 -12 -12 -13 -14 -14 -14 -14 -14 -15 -14 -14 -13 -13 -12 -11 -11 -11 -11 -12 -13 -13 -12 -12 -11 -10 -12 -12 -12 -12 -12 -12 -12 -12 -12 -12 -13 -13 -13 -13 -13 -13 -13 -13 -13
-12 -12 -13 -14 -11 -11 -12 -13 -13 -13 -14 -14 -14 -15 -14 -14 -13 -13 -13 -12 -12 -12 -12 -12 -12 -13 -12 -12 -11 -11 -11 -12 -12 -12 -12 -12 -11 -11 -12 -12 -13 -13 -13 -13 -13 -13 -13 -14 -13
-12 -12 -13 -13 -12 -12 -12 -13 -13 -13 -14 -14 -14 -15 -15 -14 -14 -13 -13 -13 -12 -12 -12 -12 -12 -12 -12 -12 -12 -12 -11 -12 -12 -12 -12 -12 -11 -12 -12 -12 -12 -13 -13 -13 -13 -13 -13 -13 -14
-13 -13 -13 -12 -13 -12 -12 -12 -13 -13 -14 -14 -14 -14 -14 -15 -14 -13 -14 -14 -12 -12 -12 -13 -12 -12 -12 -12 -12 -12 -12 -12 -12 -12 -12 -12 -12 -12 -13 -13 -13 -13 -13 -13 -13 -13 -13 -14 -15
-13 -13 -12 -12 -13 -12 -13 -11 -13 -14 -14 -14 -14 -14 -14 -15 -14 -14 -14 -14 -13 -12 -12 -13 -13 -12 -12 -12 -12 -12 -12 -12 -12 -12 -12 -12 -12 -13 -13 -13 -13 -13 -13 -13 -13 -13 -14 -14 -15
-12 -13 -12 -13 -14 -13 -13 -11 -13 -14 -14 -15 -14 -14 -14 -15 -14 -14 -14 -14 -13 -12 -12 -13 -13 -13 -12 -13 -12 -13 -13 -12 -12 -12 -13 -13 -13 -13 -13 -13 -13 -13 -13 -14 -14 -14 -15 -15 -16
-12 -13 -13 -13 -14 -13 -12 -11 -12 -13 -13 -14 -15 -14 -14 -15 -14 -14 -14 -14 -14 -13 -13 -13 -13 -13 -13 -13 -13 -13 -13 -13 -13 -13 -13 -13 -13 -13 -13 -13 -13 -13 -14 -14 -14 -15 -15 -16 -17
-13 -14 -13 -14 -14 -13 -13 -10 -12 -14 -13 -14 -14 -14 -14 -15 -15 -14 -14 -13 -14 -14 -14 -14 -13 -13 -13 -13 -13 -13 -13 -13 -13 -13 -13 -13 -13 -13 -13 -13 -14 -14 -14 -14 -15 -15 -16 -16 -16
-14 -14 -14 -14 -13 -12 -12 -12 -12 -14 -14 -14 -14 -13 -13 -15 -15 -14 -14 -14 -14 -14 -14 -14 -14 -14 -13 -13 -12 -12 -13 -13 -13 -14 -13 -13 -13 -13 -13 -14 -14 -14 -14 -15 -15 -15 -16 -16 -16
-15 -14 -14 -14 -13 -11 -11 -13 -12 -13 -14 -14 -14 -14 -14 -14 -15 -15 -14 -14 -14 -14 -14 -14 -14 -14 -14 -13 -13 -13 -13 -13 -14 -14 -14 -13 -13 -13 -13 -14 -14 -14 -15 -15 -15 -16 -16 -16 -16
-15 -15 -15 -14 -13 -11 -12 -13 -12 -13 -14 -14 -14 -14 -14 -14 -14 -14 -14 -14 -14 -14 -14 -14 -14 -14 -14 -13 -13 -14 -13 -13 -14 -14 -14 -14 -14 -14 -14 -14 -14 -15 -15 -16 -16 -16 -16 -16 -16
-17 -16 -14 -14 -13 -13 -13 -12 -12 -13 -14 -13 -14 -14 -14 -14 -15 -15 -14 -14 -14 -14 -14 -14 -14 -14 -14 -14 -14 -14 -14 -14 -14 -13 -14 -14 -14 -14 -14 -15 -15 -15 -15 -16 -16 -16 -16 -16 -16
-17 -16 -16 -15 -14 -14 -13 -12 -12 -13 -15 -14 -14 -14 -14 -15 -15 -15 -15 -14 -14 -14 -14 -14 -14 -14 -14 -14 -14 -14 -14 -14 -14 -14 -14 -14 -14 -15 -15 -15 -15 -15 -15 -15 -15 -15 -15 -16 -16
-16 -16 -16 -16 -15 -14 -13 -13 -13 -13 -15 -15 -14 -14 -15 -15 -15 -15 -15 -15 -14 -14 -15 -15 -15 -15 -14 -14 -15 -14 -15 -14 -14 -14 -15 -15 -15 -15 -15 -15 -15 -15 -15 -15 -16 -16 -16 -16 -17
-16 -16 -16 -15 -15 -14 -13 -12 -13 -13 -15 -15 -14 -14 -15 -15 -15 -15 -16 -15 -15 -15 -15 -15 -15 -15 -15 -15 -15 -15 -15 -15 -15 -15 -15 -16 -15 -15 -15 -15 -15 -16 -16 -16 -16 -16 -16 -16 -16
-17 -16 -16 -16 -15 -14 -14 -12 -14 -14 -15 -15 -15 -15 -15 -15 -16 -15 -16 -15 -15 -15 -15 -15 -15 -15 -15 -15 -15 -15 -15 -15 -15 -15 -16 -16 -16 -15 -15 -15 -15 -15 -16 -15 -15 -16 -16 -16 -16
Height
5822 5819 5816 5814 5813 5809 5806 5804 5801 5800 5798 5796 5793 5790 5788 5786 5784 5785 5782 5781 5781 5780 5781 5781 5784 5787 5789 5792 5795 5798 5803 5806 5810 5814 5816 5818 5821 5823 5829 5834 5835 5838 5840 5842 5844 5847 5847 5847 5850
5817 5814 5813 5809 5808 5805 5803 5800 5797 5796 5794 5791 5787 5785 5784 5783 5780 5779 5777 5777 5776 5775 5775 5774 5776 5782 5785 5788 5791 5795 5801 5802 5806 5810 5815 5815 5819 5824 5827 5832 5830 5835 5837 5839 5841 5843 5844 5845 5848
5813 5811 5810 5805 5803 5802 5799 5796 5793 5792 5790 5787 5785 5783 5780 5779 5777 5775 5773 5770 5767 5764 5765 5765 5767 5773 5778 5782 5786 5792 5796 5800 5803 5807 5810 5813 5816 5821 5825 5828 5828 5831 5833 5836 5839 5841 5842 5844 5844
5809 5808 5807 5802 5799 5798 5796 5793 5790 5788 5786 5784 5782 5779 5778 5775 5772 5770 5767 5762 5757 5754 5750 5750 5752 5762 5769 5775 5780 5787 5790 5794 5799 5803 5806 5811 5812 5817 5821 5824 5826 5828 5829 5834 5837 5837 5840 5842 5842
5806 5805 5803 5799 5797 5794 5791 5788 5786 5784 5783 5781 5779 5777 5774 5771 5767 5764 5760 5753 5747 5744 5736 5724 5741 5753 5762 5769 5775 5779 5784 5790 5794 5796 5803 5808 5811 5814 5818 5821 5823 5826 5829 5831 5832 5833 5835 5838 5839
5804 5802 5800 5797 5794 5791 5787 5784 5781 5780 5779 5777 5776 5774 5770 5767 5764 5759 5754 5748 5741 5736 5734 5710 5728 5745 5751 5756 5769 5774 5779 5784 5789 5792 5798 5803 5809 5810 5815 5819 5822 5822 5824 5826 5827 5829 5833 5834 5834
5801 5798 5797 5794 5791 5787 5784 5781 5777 5776 5774 5772 5771 5770 5767 5763 5760 5755 5750 5745 5739 5733 5730 5733 5728 5730 5745 5748 5760 5769 5775 5781 5785 5790 5795 5799 5804 5809 5811 5817 5819 5818 5819 5822 5825 5827 5829 5830 5831
5797 5795 5792 5791 5786 5784 5780 5778 5775 5772 5770 5767 5766 5766 5764 5760 5755 5752 5746 5742 5739 5734 5727 5730 5733 5738 5747 5752 5758 5764 5771 5774 5780 5784 5789 5794 5800 5806 5809 5813 5814 5814 5815 5817 5820 5823 5824 5826 5826
5793 5792 5787 5785 5783 5780 5777 5774 5772 5768 5765 5763 5763 5761 5759 5756 5752 5749 5743 5738 5738 5735 5732 5730 5732 5738 5744 5748 5754 5759 5766 5771 5774 5779 5785 5790 5797 5802 5806 5808 5810 5811 5812 5814 5816 5818 5820 5820 5821
5789 5787 5783 5781 5779 5776 5774 5770 5767 5765 5761 5760 5760 5757 5755 5751 5749 5746 5741 5736 5733 5733 5731 5732 5731 5733 5738 5743 5749 5750 5761 5765 5770 5776 5782 5786 5792 5797 5803 5805 5807 5808 5809 5810 5812 5815 5815 5816 5817
5785 5784 5778 5776 5775 5772 5769 5767 5762 5761 5759 5757 5756 5753 5752 5748 5746 5743 5740 5735 5731 5729 5729 5730 5730 5733 5734 5737 5744 5747 5753 5758 5766 5772 5777 5780 5785 5792 5800 5802 5802 5803 5804 5807 5808 5810 5811 5814 5813
5780 5778 5776 5775 5770 5768 5765 5764 5760 5757 5756 5753 5751 5748 5747 5745 5742 5739 5737 5732 5728 5726 5724 5726 5727 5729 5729 5731 5735 5736 5745 5755 5758 5767 5771 5774 5781 5788 5796 5796 5797 5799 5799 5801 5803 5806 5807 5807 5807
5775 5773 5771 5770 5768 5765 5761 5761 5758 5755 5753 5751 5747 5744 5744 5742 5738 5735 5732 5729 5725 5724 5722 5722 5723 5722 5721 5722 5726 5731 5739 5748 5754 5761 5765 5772 5778 5784 5791 5790 5792 5794 5794 5797 5799 5800 5802 5803 5804
5768 5767 5766 5764 5762 5761 5759 5758 5754 5752 5751 5748 5743 5741 5740 5738 5735 5732 5728 5725 5722 5722 5720 5721 5719 5715 5711 5713 5717 5722 5732 5741 5747 5753 5762 5767 5774 5780 5785 5785 5788 5788 5790 5791 5795 5796 5798 5798 5798
5762 5762 5761 5758 5756 5757 5755 5754 5750 5749 5748 5745 5741 5738 5736 5735 5731 5727 5724 5721 5718 5718 5718 5718 5717 5711 5706 5706 5704 5713 5726 5733 5743 5751 5757 5764 5770 5775 5778 5781 5782 5783 5786 5787 5788 5791 5792 5793 5793
5756 5757 5757 5752 5750 5751 5752 5751 5745 5745 5743 5742 5740 5736 5733 5732 5730 5724 5721 5717 5714 5714 5715 5716 5715 5711 5702 5702 5700 5711 5721 5732 5741 5746 5754 5759 5765 5770 5773 5776 5777 5779 5780 5782 5783 5785 5786 5786 5786
5750 5751 5750 5748 5746 5745 5746 5747 5742 5741 5740 5738 5738 5736 5731 5729 5727 5723 5716 5713 5710 5711 5713 5714 5714 5713 5705 5704 5707 5712 5721 5730 5739 5744 5749 5755 5761 5765 5768 5771 5773 5775 5776 5777 5779 5780 5781 5780 5780
5744 5742 5741 5744 5741 5740 5740 5742 5740 5737 5737 5735 5735 5734 5731 5727 5725 5721 5715 5710 5707 5708 5710 5712 5712 5713 5710 5708 5709 5717 5722 5730 5736 5742 5747 5753 5756 5760 5764 5766 5768 5769 5771 5771 5773 5775 5775 5775 5776
5733 5733 5735 5739 5735 5735 5734 5734 5737 5734 5733 5732 5732 5731 5730 5725 5723 5720 5715 5709 5705 5706 5708 5711 5711 5712 5713 5712 5713 5718 5725 5730 5735 5739 5744 5750 5753 5756 5759 5761 5763 5765 5765 5766 5769 5769 5770 5770 5770
5725 5726 5730 5733 5729 5728 5728 5728 5731 5730 5729 5728 5729 5727 5726 5723 5721 5719 5716 5711 5707 5705 5706 5709 5711 5711 5714 5715 5716 5721 5726 5731 5735 5738 5742 5746 5750 5753 5754 5756 5757 5758 5760 5761 5763 5763 5764 5764 5766
5717 5719 5725 5725 5721 5720 5722 5724 5727 5726 5725 5724 5724 5724 5724 5720 5720 5719 5717 5713 5710 5706 5706 5709 5709 5710 5713 5716 5718 5721 5724 5728 5732 5736 5740 5743 5747 5748 5749 5749 5751 5753 5754 5755 5756 5757 5759 5761 5764
5710 5715 5714 5716 5713 5715 5715 5717 5722 5721 5721 5721 5720 5720 5721 5718 5718 5717 5716 5715 5713 5709 5707 5707 5708 5708 5710 5713 5714 5717 5720 5724 5728 5732 5734 5739 5742 5744 5745 5744 5745 5747 5748 5749 5752 5753 5755 5757 5760
5704 5704 5704 5706 5705 5705 5711 5712 5720 5718 5717 5716 5717 5717 5718 5717 5715 5715 5715 5714 5714 5712 5710 5708 5708 5709 5710 5710 5711 5713 5717 5722 5725 5726 5730 5733 5736 5738 5738 5739 5739 5741 5743 5746 5747 5750 5752 5753 5754
5691 5695 5695 5698 5698 5698 5707 5706 5715 5713 5711 5712 5714 5714 5714 5716 5713 5713 5713 5712 5713 5712 5712 5711 5711 5711 5712 5712 5711 5711 5714 5717 5719 5722 5725 5728 5730 5731 5732 5733 5736 5741 5741 5746 5745 5745 5746 5748 5749
5683 5687 5688 5691 5689 5695 5699 5699 5706 5708 5706 5708 5710 5711 5712 5714 5711 5711 5712 5711 5711 5711 5710 5711 5711 5712 5712 5712 5713 5714 5716 5717 5718 5720 5722 5726 5727 5729 5732 5734 5736 5739 5739 5740 5739 5740 5742 5743 5742
5675 5680 5681 5682 5685 5690 5688 5690 5698 5702 5701 5703 5705 5706 5707 5709 5710 5709 5710 5711 5710 5709 5710 5709 5708 5709 5710 5712 5713 5712 5715 5717 5718 5720 5720 5723 5727 5728 5731 5732 5733 5733 5733 5735 5735 5736 5737 5737 5736
5665 5667 5677 5676 5677 5678 5680 5683 5687 5698 5697 5698 5700 5702 5702 5703 5707 5707 5707 5708 5709 5709 5708 5708 5708 5709 5710 5711 5711 5711 5714 5715 5717 5718 5719 5722 5724 5724 5728 5729 5728 5727 5728 5728 5728 5729 5730 5727 5727
5654 5660 5664 5663 5667 5670 5673 5676 5678 5691 5690 5690 5694 5697 5697 5699 5701 5703 5703 5705 5706 5707 5706 5707 5707 5707 5709 5710 5710 5711 5711 5713 5714 5716 5716 5717 5718 5719 5720 5721 5723 5723 5723 5723 5721 5722 5721 5718 5716
5647 5650 5654 5656 5660 5662 5665 5667 5671 5685 5684 5686 5690 5691 5693 5694 5696 5698 5699 5702 5702 5703 5703 5703 5704 5704 5704 5704 5706 5706 5707 5709 5711 5712 5712 5714 5714 5715 5716 5717 5717 5718 5717 5715 5713 5711 5708 5705 5704
5637 5640 5644 5646 5653 5655 5658 5663 5667 5677 5679 5679 5684 5686 5688 5690 5691 5695 5696 5697 5697 5698 5698 5698 5698 5698 5700 5699 5700 5702 5703 5705 5705 5707 5708 5709 5709 5708 5709 5710 5710 5709 5709 5707 5703 5702 5701 5696 5694
Wind_Speed
32 29 26 25 25 23 25 29 24 22 24 26 26 27 25 22 20 20 22 22 24 25 29 32 36 37 21 19 29 18 24 25 24 26 25 22 21 20 16 15 11 10 8 5 6 10 12 9 10
27 24 23 23 22 22 27 23 21 22 24 23 26 26 23 23 26 27 27 28 29 31 32 35 39 36 38 31 24 24 22 24 21 23 31 28 23 19 16 11 9 8 5 5 8 10 13 12 10
23 20 22 22 22 23 25 21 19 22 21 19 19 21 23 27 29 28 27 30 32 37 37 38 37 38 32 32 39 28 29 23 20 24 30 30 26 22 19 15 12 9 7 8 10 11 9 10 8
22 20 22 23 22 23 23 18 18 21 19 17 18 20 25 27 26 22 24 30 34 39 40 48 45 34 39 25 33 32 28 23 25 29 32 31 31 25 22 17 12 10 9 10 13 12 14 15 17
21 19 23 25 25 25 22 18 16 19 18 18 18 22 25 22 23 23 25 28 28 30 37 44 45 40 33 43 35 32 30 22 25 33 27 31 29 28 22 17 13 12 10 11 11 12 16 17 18
21 18 22 25 27 29 27 19 16 17 18 21 19 21 21 23 24 20 20 24 21 20 18 31 37 41 39 45 40 33 31 25 23 24 23 33 27 26 21 17 13 12 12 15 14 14 16 18 18
23 19 22 24 27 28 31 25 17 17 19 21 20 19 17 20 20 18 21 18 15 15 14 26 42 43 17 39 27 26 28 31 27 28 35 37 28 27 22 19 13 11 15 18 16 14 17 17 17
24 17 20 22 24 26 30 27 21 17 18 20 21 18 18 22 20 19 20 14 11 13 11 17 23 24 15 19 24 21 17 19 30 24 39 37 33 28 25 21 16 15 15 16 16 17 19 20 20
20 17 20 21 21 25 27 27 24 19 19 19 19 16 18 20 21 22 19 18 9 8 14 17 25 23 24 21 23 23 20 26 28 27 35 36 34 27 26 22 20 18 16 17 18 23 20 20 22
17 14 21 20 23 24 25 26 24 18 15 16 15 15 18 18 19 20 20 16 13 4 9 14 20 28 28 26 31 34 26 29 31 27 35 39 36 33 28 27 22 15 16 17 19 20 20 23 27
15 13 19 23 25 25 28 24 20 19 20 18 16 15 14 16 20 20 18 16 17 7 10 12 15 19 24 27 37 27 41 28 28 30 37 37 38 39 32 27 20 17 15 16 20 22 23 28 25
16 16 15 17 26 25 28 28 21 18 25 21 14 10 13 18 20 21 20 16 16 19 12 10 16 18 24 31 31 44 46 33 34 29 30 41 37 34 30 26 20 20 18 18 26 26 28 25 25
19 16 14 14 23 23 25 25 20 19 22 24 9 9 13 17 22 23 21 17 17 18 16 12 7 11 21 41 48 42 40 44 34 32 34 38 38 34 33 25 23 22 19 21 25 23 25 28 28
22 17 16 17 20 20 22 21 20 23 22 25 8 11 15 18 23 22 21 17 18 17 17 14 11 10 11 24 44 48 49 47 42 31 34 41 42 37 33 27 24 24 22 20 29 25 26 27 30
24 21 18 22 17 20 20 18 18 20 22 26 10 8 12 15 20 21 19 24 21 19 15 12 5 11 6 18 25 48 50 42 43 30 36 40 38 36 32 28 26 26 23 27 26 28 29 29 30
25 24 19 25 19 19 17 13 22 20 19 19 13 9 11 14 18 23 19 19 19 21 18 15 11 11 2 6 16 41 45 43 36 35 37 40 37 34 32 28 25 23 25 27 24 26 27 29 30
23 24 23 27 22 21 18 14 21 20 18 19 16 17 13 14 15 19 23 16 17 20 19 14 9 5 9 6 21 26 39 45 41 33 42 39 32 34 33 31 30 24 28 25 28 28 27 29 28
22 26 30 24 25 23 22 14 18 20 16 20 19 22 20 15 13 16 21 18 16 17 18 11 6 6 14 15 21 29 31 43 32 37 33 32 35 29 37 32 27 24 26 26 28 30 30 31 27
33 32 31 20 25 25 26 11 15 20 17 20 23 20 24 15 12 13 18 16 9 13 15 11 8 8 13 22 18 20 28 30 27 32 31 32 30 25 31 32 29 29 28 27 30 31 32 29 27
34 34 29 22 24 29 29 17 17 22 20 19 24 21 23 13 11 10 15 17 5 7 10 10 9 14 11 17 27 22 25 28 22 24 28 29 28 28 28 29 34 33 29 29 30 30 28 25 20
36 36 30 26 29 33 32 21 16 21 19 18 23 19 18 12 10 8 11 13 14 1 5 11 10 11 20 16 22 25 23 30 25 27 29 34 33 33 32 30 34 32 32 30 31 28 25 21 22
38 31 35 30 32 32 33 22 9 19 19 18 22 16 17 12 12 10 6 8 10 11 3 2 3 7 12 16 20 23 27 25 32 30 33 35 32 31 30 27 28 28 28 23 22 21 22 24 24
35 34 38 34 35 34 31 28 6 13 17 19 21 16 13 12 11 12 8 4 4 6 6 4 2 1 4 9 14 20 23 25 26 30 32 31 30 31 30 29 26 23 18 19 22 23 24 27 28
36 36 38 38 39 36 27 28 8 10 17 19 22 21 15 14 11 10 10 8 5 2 2 1 2 3 4 4 5 8 10 13 15 17 23 26 21 16 14 14 16 19 20 24 24 26 26 28 31
36 37 40 42 42 34 30 28 17 11 16 14 19 21 17 15 9 8 8 8 9 6 3 5 5 5 3 3 3 4 5 7 7 9 10 12 13 14 15 16 18 21 23 26 28 29 31 31 35
34 37 41 43 40 35 38 34 23 14 12 18 21 24 20 15 12 10 11 11 9 10 8 6 6 6 6 7 8 7 8 9 9 10 11 13 16 14 13 15 18 20 20 24 27 32 34 38 37
38 41 37 42 42 42 41 38 34 15 14 16 20 22 21 16 19 15 15 12 14 8 8 10 8 9 9 10 10 10 12 12 11 11 12 13 15 15 15 15 16 18 20 23 26 29 34 36 38
45 42 42 46 45 43 41 40 38 20 16 19 19 22 22 22 19 16 11 13 14 14 9 8 12 13 12 13 12 12 11 12 12 14 14 15 15 14 15 17 19 21 23 27 31 33 35 40 42
41 45 47 48 45 43 43 44 41 20 21 18 17 23 23 23 21 26 20 20 17 20 20 18 17 19 18 18 18 17 16 18 18 18 18 18 15 17 17 20 22 25 28 32 35 39 42 45 48
35 42 46 51 50 49 47 43 40 23 20 18 14 22 17 23 24 26 20 17 16 20 23 24 24 25 23 23 21 20 20 22 27 22 22 20 18 19 21 24 26 29 31 36 36 41 49 46 52
Wind_Direction
303 303 302 299 305 315 316 319 314 312 310 310 313 310 308 297 299 286 284 274 264 264 252 248 244 242 237 245 227 230 239 228 224 212 223 193 179 173 173 187 175 189 192 201 248 268 268 265 258
307 304 299 298 310 314 320 318 310 308 306 313 319 313 308 290 290 290 280 272 269 262 253 251 247 244 257 250 252 244 242 219 223 220 198 188 178 181 181 191 179 196 205 254 258 268 274 260 266
307 301 297 306 313 318 321 315 306 306 305 322 316 302 303 296 294 289 281 276 272 266 254 246 244 242 244 243 248 247 247 240 237 230 200 194 183 186 187 192 186 197 221 247 255 252 244 234 240
313 301 299 302 307 314 318 311 304 304 305 312 305 301 300 297 292 291 301 295 277 269 261 239 239 243 234 235 233 239 242 252 244 216 199 196 189 189 190 189 185 197 213 230 244 248 247 248 251
315 302 302 301 306 309 318 312 306 312 302 298 296 300 297 297 291 291 311 304 291 270 271 218 225 234 233 237 235 234 242 243 251 242 213 199 193 188 188 193 196 208 233 238 249 248 255 255 254
314 304 300 300 306 313 319 313 311 317 307 288 293 292 295 287 294 305 327 317 296 292 278 218 229 223 219 221 227 227 241 242 241 241 218 204 201 192 192 193 201 223 244 244 242 244 250 257 259
305 297 296 298 307 321 322 316 309 316 313 298 290 287 293 290 298 311 328 331 323 311 283 229 204 204 197 235 200 216 231 241 219 229 208 207 200 206 194 202 213 232 246 247 245 258 258 259 265
301 300 296 295 310 321 323 320 303 308 307 297 285 284 291 301 305 303 326 344 349 315 303 240 230 215 215 192 205 214 220 223 226 227 207 197 200 203 202 204 217 237 234 243 249 254 256 255 264
299 308 292 298 309 312 319 328 306 310 308 291 285 298 306 304 302 302 300 325 358 308 268 255 239 234 225 221 223 217 223 227 234 235 213 202 200 211 207 207 220 230 233 244 252 254 265 268 270
296 310 292 302 304 307 320 329 317 310 302 289 303 317 310 312 300 299 296 306 318 289 265 253 238 236 236 235 238 231 220 215 225 230 217 208 204 207 206 212 219 217 232 243 255 263 272 273 269
287 295 295 303 303 309 316 326 315 304 293 291 299 311 308 311 305 294 291 282 278 270 250 243 230 230 232 238 228 228 208 211 224 220 221 227 217 207 215 214 213 224 221 244 257 258 265 265 274
270 278 289 301 301 306 315 325 318 305 297 289 294 304 307 310 304 298 284 276 268 266 245 277 231 225 227 225 223 226 242 211 213 224 215 214 207 208 212 211 217 230 231 247 254 260 260 268 270
273 272 287 287 292 302 311 322 321 295 296 287 288 315 314 309 303 298 293 271 264 258 251 250 272 238 224 215 217 214 232 216 211 215 213 210 204 213 217 219 226 231 237 244 246 257 260 269 266
264 270 274 284 288 296 306 321 313 312 306 295 281 318 319 308 307 305 300 275 263 252 251 246 275 324 258 215 217 213 207 203 205 197 211 200 213 213 225 224 224 231 244 262 249 252 266 272 267
263 265 271 277 281 293 299 318 306 314 309 301 283 319 320 320 320 317 310 294 276 246 244 239 261 315 296 213 224 206 208 197 200 192 195 202 209 213 226 225 236 239 241 253 252 254 262 270 268
263 265 266 275 281 282 290 309 306 310 312 312 289 295 326 326 329 318 320 298 272 246 234 232 233 277 33 181 176 190 192 192 199 204 192 203 213 223 220 224 229 235 239 247 253 252 260 268 267
262 267 265 262 274 280 290 304 296 308 306 299 293 286 311 316 328 322 323 309 262 243 236 225 231 237 93 187 164 176 198 205 196 195 195 204 214 221 227 226 233 238 247 252 260 261 269 269 263
258 251 256 264 271 276 282 298 299 304 301 293 292 285 301 306 324 329 324 324 265 248 238 229 208 209 142 111 175 172 186 198 202 195 199 214 221 225 224 227 229 237 244 252 259 262 264 265 256
240 243 253 260 268 270 280 282 296 293 302 284 282 286 294 300 318 341 333 338 279 238 233 214 218 191 177 160 135 138 163 175 186 189 193 210 210 228 227 234 232 247 257 257 260 261 266 258 244
243 246 251 254 264 265 270 277 290 291 286 280 277 273 287 293 313 345 335 357 328 232 225 219 197 194 195 185 170 172 182 186 196 202 203 202 212 228 238 232 241 249 253 256 261 262 255 239 232
241 244 246 251 255 260 267 271 284 281 282 269 268 273 277 281 304 326 343 355 11 103 221 227 232 226 200 196 200 200 208 200 205 210 215 223 226 234 235 239 242 247 252 258 257 252 247 227 232
240 243 244 246 249 251 263 273 277 281 280 269 259 259 273 268 290 310 329 357 11 29 46 241 267 230 215 214 220 210 213 208 221 228 230 219 231 236 248 245 243 246 251 242 233 227 224 230 236
238 239 242 240 245 253 257 267 287 281 276 265 253 264 273 266 276 295 301 333 3 21 37 52 76 230 212 218 214 217 216 224 233 229 236 230 233 240 251 250 246 240 222 223 224 228 232 242 250
233 236 239 242 247 251 258 268 248 260 256 261 255 258 259 266 264 274 284 294 304 324 280 158 107 171 193 192 163 164 170 191 204 213 223 235 236 227 223 216 222 232 225 236 238 239 243 251 256
236 235 239 242 245 254 259 264 264 251 253 250 248 248 256 267 257 266 287 307 295 276 257 239 227 202 185 178 172 171 179 196 199 206 210 218 222 229 227 228 230 240 243 247 250 244 244 244 250
237 237 243 244 250 257 259 259 254 243 258 245 231 247 253 254 253 263 284 294 299 293 268 245 231 241 231 221 207 199 205 209 208 209 214 222 230 229 239 242 245 251 259 262 262 258 258 258 257
231 234 242 246 248 251 252 255 260 243 253 247 240 243 246 248 241 254 265 270 291 269 287 279 252 233 225 230 217 211 218 221 221 224 225 226 237 241 249 256 255 261 262 266 268 267 265 266 264
234 229 232 241 245 249 253 256 258 251 262 239 235 230 241 243 243 233 243 268 285 251 251 283 273 256 244 231 232 229 229 230 231 233 236 240 245 255 263 267 265 268 267 267 268 267 269 268 267
236 234 232 238 244 245 248 250 255 254 268 259 246 240 244 236 233 240 252 269 272 260 263 271 272 257 248 249 248 253 260 266 258 246 242 245 249 258 270 269 267 269 273 272 274 274 278 279 269
238 235 230 237 242 247 252 252 262 259 259 253 239 234 239 233 241 254 246 257 268 268 267 271 273 253 250 251 254 260 261 278 269 250 246 250 257 265 271 272 272 272 284 275 284 285 277 282 284